﻿測定場所 (Monitoring sites),日付 (Measurement date),時間 (Measurement time),線量率 最大値 (max) μGy/h,線量率 最小値 (min) μGy/h,線量率 平均値 (average) μGy/h,
新宿 (Shinjuku),2018-09-30,23:01～24:00,0.0490,0.0389,0.0438,
新宿 (Shinjuku),2018-09-30,22:01～23:00,0.0423,0.0351,0.0379,
新宿 (Shinjuku),2018-09-30,21:01～22:00,0.0393,0.0341,0.0363,
新宿 (Shinjuku),2018-09-30,20:01～21:00,0.0373,0.0336,0.0360,
新宿 (Shinjuku),2018-09-30,19:01～20:00,0.0395,0.0346,0.0366,
新宿 (Shinjuku),2018-09-30,18:01～19:00,0.0394,0.0345,0.0369,
新宿 (Shinjuku),2018-09-30,17:01～18:00,0.0403,0.0346,0.0374,
新宿 (Shinjuku),2018-09-30,16:01～17:00,0.0417,0.0353,0.0375,
新宿 (Shinjuku),2018-09-30,15:01～16:00,0.0409,0.0352,0.0371,
新宿 (Shinjuku),2018-09-30,14:01～15:00,0.0395,0.0347,0.0368,
新宿 (Shinjuku),2018-09-30,13:01～14:00,0.0401,0.0348,0.0366,
新宿 (Shinjuku),2018-09-30,12:01～13:00,0.0414,0.0342,0.0364,
新宿 (Shinjuku),2018-09-30,11:01～12:00,0.0394,0.0345,0.0363,
新宿 (Shinjuku),2018-09-30,10:01～11:00,0.0422,0.0346,0.0368,
新宿 (Shinjuku),2018-09-30,09:01～10:00,0.0403,0.0343,0.0374,
新宿 (Shinjuku),2018-09-30,08:01～09:00,0.0439,0.0366,0.0393,
新宿 (Shinjuku),2018-09-30,07:01～08:00,0.0453,0.0370,0.0411,
新宿 (Shinjuku),2018-09-30,06:01～07:00,0.0479,0.0377,0.0415,
新宿 (Shinjuku),2018-09-30,05:01～06:00,0.0455,0.0386,0.0419,
新宿 (Shinjuku),2018-09-30,04:01～05:00,0.0449,0.0394,0.0419,
新宿 (Shinjuku),2018-09-30,03:01～04:00,0.0460,0.0391,0.0421,
新宿 (Shinjuku),2018-09-30,02:01～03:00,0.0431,0.0366,0.0400,
新宿 (Shinjuku),2018-09-30,01:01～02:00,0.0431,0.0364,0.0388,
新宿 (Shinjuku),2018-09-30,00:01～01:00,0.0429,0.0367,0.0395,
新宿 (Shinjuku),2018-09-29,23:01～24:00,0.0397,0.0346,0.0366,
新宿 (Shinjuku),2018-09-29,22:01～23:00,0.0398,0.0343,0.0366,
新宿 (Shinjuku),2018-09-29,21:01～22:00,0.0417,0.0350,0.0368,
新宿 (Shinjuku),2018-09-29,20:01～21:00,0.0409,0.0353,0.0375,
新宿 (Shinjuku),2018-09-29,19:01～20:00,0.0440,0.0360,0.0390,
新宿 (Shinjuku),2018-09-29,18:01～19:00,0.0424,0.0355,0.0391,
新宿 (Shinjuku),2018-09-29,17:01～18:00,0.0432,0.0355,0.0392,
新宿 (Shinjuku),2018-09-29,16:01～17:00,0.0430,0.0368,0.0397,
新宿 (Shinjuku),2018-09-29,15:01～16:00,0.0437,0.0371,0.0408,
新宿 (Shinjuku),2018-09-29,14:01～15:00,0.0449,0.0374,0.0411,
新宿 (Shinjuku),2018-09-29,13:01～14:00,0.0458,0.0382,0.0413,
新宿 (Shinjuku),2018-09-29,12:01～13:00,0.0443,0.0370,0.0407,
新宿 (Shinjuku),2018-09-29,11:01～12:00,0.0447,0.0361,0.0396,
新宿 (Shinjuku),2018-09-29,10:01～11:00,0.0442,0.0349,0.0387,
新宿 (Shinjuku),2018-09-29,09:01～10:00,0.0409,0.0361,0.0382,
新宿 (Shinjuku),2018-09-29,08:01～09:00,0.0427,0.0354,0.0380,
新宿 (Shinjuku),2018-09-29,07:01～08:00,0.0411,0.0357,0.0376,
新宿 (Shinjuku),2018-09-29,06:01～07:00,0.0399,0.0353,0.0373,
新宿 (Shinjuku),2018-09-29,05:01～06:00,0.0405,0.0349,0.0374,
新宿 (Shinjuku),2018-09-29,04:01～05:00,0.0402,0.0354,0.0371,
新宿 (Shinjuku),2018-09-29,03:01～04:00,0.0394,0.0345,0.0365,
新宿 (Shinjuku),2018-09-29,02:01～03:00,0.0386,0.0342,0.0364,
新宿 (Shinjuku),2018-09-29,01:01～02:00,0.0397,0.0346,0.0368,
新宿 (Shinjuku),2018-09-29,00:01～01:00,0.0399,0.0334,0.0367,
新宿 (Shinjuku),2018-09-28,23:01～24:00,0.0401,0.0345,0.0369,
新宿 (Shinjuku),2018-09-28,22:01～23:00,0.0411,0.0346,0.0367,
新宿 (Shinjuku),2018-09-28,21:01～22:00,0.0392,0.0349,0.0365,
新宿 (Shinjuku),2018-09-28,20:01～21:00,0.0393,0.0346,0.0367,
新宿 (Shinjuku),2018-09-28,19:01～20:00,0.0401,0.0349,0.0368,
新宿 (Shinjuku),2018-09-28,18:01～19:00,0.0418,0.0350,0.0367,
新宿 (Shinjuku),2018-09-28,17:01～18:00,0.0408,0.0348,0.0369,
新宿 (Shinjuku),2018-09-28,16:01～17:00,0.0388,0.0353,0.0367,
新宿 (Shinjuku),2018-09-28,15:01～16:00,0.0387,0.0349,0.0366,
新宿 (Shinjuku),2018-09-28,14:01～15:00,0.0400,0.0343,0.0366,
新宿 (Shinjuku),2018-09-28,13:01～14:00,0.0410,0.0347,0.0367,
新宿 (Shinjuku),2018-09-28,12:01～13:00,0.0401,0.0348,0.0367,
新宿 (Shinjuku),2018-09-28,11:01～12:00,0.0395,0.0340,0.0367,
新宿 (Shinjuku),2018-09-28,10:01～11:00,0.0393,0.0352,0.0369,
新宿 (Shinjuku),2018-09-28,09:01～10:00,0.0404,0.0344,0.0368,
新宿 (Shinjuku),2018-09-28,08:01～09:00,0.0407,0.0357,0.0374,
新宿 (Shinjuku),2018-09-28,07:01～08:00,0.0418,0.0358,0.0377,
新宿 (Shinjuku),2018-09-28,06:01～07:00,0.0409,0.0356,0.0378,
新宿 (Shinjuku),2018-09-28,05:01～06:00,0.0411,0.0350,0.0375,
新宿 (Shinjuku),2018-09-28,04:01～05:00,0.0406,0.0353,0.0373,
新宿 (Shinjuku),2018-09-28,03:01～04:00,0.0409,0.0350,0.0376,
新宿 (Shinjuku),2018-09-28,02:01～03:00,0.0403,0.0343,0.0371,
新宿 (Shinjuku),2018-09-28,01:01～02:00,0.0398,0.0346,0.0368,
新宿 (Shinjuku),2018-09-28,00:01～01:00,0.0399,0.0345,0.0369,
新宿 (Shinjuku),2018-09-27,23:01～24:00,0.0399,0.0349,0.0368,
新宿 (Shinjuku),2018-09-27,22:01～23:00,0.0411,0.0344,0.0370,
新宿 (Shinjuku),2018-09-27,21:01～22:00,0.0395,0.0346,0.0368,
新宿 (Shinjuku),2018-09-27,20:01～21:00,0.0406,0.0348,0.0366,
新宿 (Shinjuku),2018-09-27,19:01～20:00,0.0408,0.0348,0.0366,
新宿 (Shinjuku),2018-09-27,18:01～19:00,0.0396,0.0342,0.0366,
新宿 (Shinjuku),2018-09-27,17:01～18:00,0.0391,0.0329,0.0366,
新宿 (Shinjuku),2018-09-27,16:01～17:00,0.0411,0.0341,0.0368,
新宿 (Shinjuku),2018-09-27,15:01～16:00,0.0414,0.0356,0.0378,
新宿 (Shinjuku),2018-09-27,14:01～15:00,0.0416,0.0355,0.0383,
新宿 (Shinjuku),2018-09-27,13:01～14:00,0.0423,0.0359,0.0382,
新宿 (Shinjuku),2018-09-27,12:01～13:00,0.0431,0.0365,0.0394,
新宿 (Shinjuku),2018-09-27,11:01～12:00,0.0456,0.0363,0.0396,
新宿 (Shinjuku),2018-09-27,10:01～11:00,0.0421,0.0354,0.0386,
新宿 (Shinjuku),2018-09-27,09:01～10:00,0.0426,0.0359,0.0389,
新宿 (Shinjuku),2018-09-27,08:01～09:00,0.0410,0.0347,0.0373,
新宿 (Shinjuku),2018-09-27,07:01～08:00,0.0420,0.0362,0.0384,
新宿 (Shinjuku),2018-09-27,06:01～07:00,0.0431,0.0360,0.0384,
新宿 (Shinjuku),2018-09-27,05:01～06:00,0.0443,0.0370,0.0407,
新宿 (Shinjuku),2018-09-27,04:01～05:00,0.0496,0.0400,0.0454,
新宿 (Shinjuku),2018-09-27,03:01～04:00,0.0519,0.0436,0.0475,
新宿 (Shinjuku),2018-09-27,02:01～03:00,0.0535,0.0447,0.0497,
新宿 (Shinjuku),2018-09-27,01:01～02:00,0.0576,0.0450,0.0522,
新宿 (Shinjuku),2018-09-27,00:01～01:00,0.0516,0.0448,0.0480,
新宿 (Shinjuku),2018-09-26,23:01～24:00,0.0524,0.0422,0.0473,
新宿 (Shinjuku),2018-09-26,22:01～23:00,0.0540,0.0465,0.0506,
新宿 (Shinjuku),2018-09-26,21:01～22:00,0.0526,0.0418,0.0471,
新宿 (Shinjuku),2018-09-26,20:01～21:00,0.0521,0.0438,0.0474,
新宿 (Shinjuku),2018-09-26,19:01～20:00,0.0519,0.0431,0.0470,
新宿 (Shinjuku),2018-09-26,18:01～19:00,0.0525,0.0413,0.0475,
新宿 (Shinjuku),2018-09-26,17:01～18:00,0.0482,0.0408,0.0448,
新宿 (Shinjuku),2018-09-26,16:01～17:00,0.0494,0.0405,0.0449,
新宿 (Shinjuku),2018-09-26,15:01～16:00,0.0428,0.0346,0.0382,
新宿 (Shinjuku),2018-09-26,14:01～15:00,0.0398,0.0352,0.0369,
新宿 (Shinjuku),2018-09-26,13:01～14:00,0.0397,0.0344,0.0366,
新宿 (Shinjuku),2018-09-26,12:01～13:00,0.0415,0.0346,0.0369,
新宿 (Shinjuku),2018-09-26,11:01～12:00,0.0418,0.0350,0.0372,
新宿 (Shinjuku),2018-09-26,10:01～11:00,0.0425,0.0356,0.0385,
新宿 (Shinjuku),2018-09-26,09:01～10:00,0.0441,0.0383,0.0411,
新宿 (Shinjuku),2018-09-26,08:01～09:00,0.0448,0.0352,0.0382,
新宿 (Shinjuku),2018-09-26,07:01～08:00,0.0404,0.0352,0.0374,
新宿 (Shinjuku),2018-09-26,06:01～07:00,0.0432,0.0357,0.0380,
新宿 (Shinjuku),2018-09-26,05:01～06:00,0.0420,0.0360,0.0392,
新宿 (Shinjuku),2018-09-26,04:01～05:00,0.0460,0.0362,0.0406,
新宿 (Shinjuku),2018-09-26,03:01～04:00,0.0488,0.0399,0.0447,
新宿 (Shinjuku),2018-09-26,02:01～03:00,0.0512,0.0418,0.0457,
新宿 (Shinjuku),2018-09-26,01:01～02:00,0.0466,0.0383,0.0416,
新宿 (Shinjuku),2018-09-26,00:01～01:00,0.0418,0.0350,0.0375,
新宿 (Shinjuku),2018-09-25,23:01～24:00,0.0397,0.0345,0.0366,
新宿 (Shinjuku),2018-09-25,22:01～23:00,0.0410,0.0347,0.0368,
新宿 (Shinjuku),2018-09-25,21:01～22:00,0.0397,0.0347,0.0367,
新宿 (Shinjuku),2018-09-25,20:01～21:00,0.0422,0.0356,0.0382,
新宿 (Shinjuku),2018-09-25,19:01～20:00,0.0470,0.0369,0.0424,
新宿 (Shinjuku),2018-09-25,18:01～19:00,0.0478,0.0410,0.0446,
新宿 (Shinjuku),2018-09-25,17:01～18:00,0.0509,0.0430,0.0459,
新宿 (Shinjuku),2018-09-25,16:01～17:00,0.0532,0.0431,0.0478,
新宿 (Shinjuku),2018-09-25,15:01～16:00,0.0607,0.0502,0.0547,
新宿 (Shinjuku),2018-09-25,14:01～15:00,0.0578,0.0486,0.0520,
新宿 (Shinjuku),2018-09-25,13:01～14:00,0.0524,0.0443,0.0488,
新宿 (Shinjuku),2018-09-25,12:01～13:00,0.0544,0.0369,0.0472,
新宿 (Shinjuku),2018-09-25,11:01～12:00,0.0412,0.0353,0.0371,
新宿 (Shinjuku),2018-09-25,10:01～11:00,0.0402,0.0340,0.0368,
新宿 (Shinjuku),2018-09-25,09:01～10:00,0.0395,0.0341,0.0367,
新宿 (Shinjuku),2018-09-25,08:01～09:00,0.0411,0.0338,0.0364,
新宿 (Shinjuku),2018-09-25,07:01～08:00,0.0389,0.0352,0.0368,
新宿 (Shinjuku),2018-09-25,06:01～07:00,0.0414,0.0347,0.0368,
新宿 (Shinjuku),2018-09-25,05:01～06:00,0.0399,0.0351,0.0367,
新宿 (Shinjuku),2018-09-25,04:01～05:00,0.0396,0.0345,0.0367,
新宿 (Shinjuku),2018-09-25,03:01～04:00,0.0397,0.0343,0.0369,
新宿 (Shinjuku),2018-09-25,02:01～03:00,0.0403,0.0355,0.0368,
新宿 (Shinjuku),2018-09-25,01:01～02:00,0.0412,0.0351,0.0371,
新宿 (Shinjuku),2018-09-25,00:01～01:00,0.0406,0.0351,0.0368,
新宿 (Shinjuku),2018-09-24,23:01～24:00,0.0389,0.0347,0.0366,
新宿 (Shinjuku),2018-09-24,22:01～23:00,0.0394,0.0347,0.0364,
新宿 (Shinjuku),2018-09-24,21:01～22:00,0.0384,0.0329,0.0362,
新宿 (Shinjuku),2018-09-24,20:01～21:00,0.0403,0.0344,0.0365,
新宿 (Shinjuku),2018-09-24,19:01～20:00,0.0385,0.0348,0.0365,
新宿 (Shinjuku),2018-09-24,18:01～19:00,0.0398,0.0346,0.0365,
新宿 (Shinjuku),2018-09-24,17:01～18:00,0.0387,0.0344,0.0367,
新宿 (Shinjuku),2018-09-24,16:01～17:00,0.0395,0.0346,0.0367,
新宿 (Shinjuku),2018-09-24,15:01～16:00,0.0396,0.0344,0.0366,
新宿 (Shinjuku),2018-09-24,14:01～15:00,0.0399,0.0343,0.0365,
新宿 (Shinjuku),2018-09-24,13:01～14:00,0.0404,0.0346,0.0366,
新宿 (Shinjuku),2018-09-24,12:01～13:00,0.0404,0.0345,0.0371,
新宿 (Shinjuku),2018-09-24,11:01～12:00,0.0400,0.0348,0.0365,
新宿 (Shinjuku),2018-09-24,10:01～11:00,0.0391,0.0337,0.0368,
新宿 (Shinjuku),2018-09-24,09:01～10:00,0.0412,0.0348,0.0369,
新宿 (Shinjuku),2018-09-24,08:01～09:00,0.0408,0.0353,0.0375,
新宿 (Shinjuku),2018-09-24,07:01～08:00,0.0415,0.0353,0.0375,
新宿 (Shinjuku),2018-09-24,06:01～07:00,0.0405,0.0350,0.0370,
新宿 (Shinjuku),2018-09-24,05:01～06:00,0.0415,0.0340,0.0369,
新宿 (Shinjuku),2018-09-24,04:01～05:00,0.0392,0.0352,0.0369,
新宿 (Shinjuku),2018-09-24,03:01～04:00,0.0399,0.0340,0.0368,
新宿 (Shinjuku),2018-09-24,02:01～03:00,0.0397,0.0341,0.0366,
新宿 (Shinjuku),2018-09-24,01:01～02:00,0.0392,0.0341,0.0365,
新宿 (Shinjuku),2018-09-24,00:01～01:00,0.0402,0.0341,0.0365,
